Retour au catalogue

LONGJIANG 1

ActifScienceHEO
NORAD 43471·PAYLOAD·🇨🇳 China

Lancé May 20, 2018 depuis Xichang Satellite Launch Center

Loading…

Prochains Passages (prochaines 24 heures)

TLE

PériméSource: Space-Track

Époque: May 20, 2018, 23:16 UTC

1 43471U 18045B   18140.97000001 -.00010094 +00000-0 +00000-0 0  9993
2 43471 027.5020 209.5210 9658153 171.2240 002.0960 00.09844104000018

Suivez LONGJIANG 1 en temps réel avec AllMySat

Download on the App Store